Regional Weather Roundup
Issued by NWS Jackson, KY

Home | Current Version | Previous Version | Graphics & Text | Print | Product List | Glossary On
Versions: 1 2 3 4 5 6 7 8 9 10 11 12 13 14 15 16 17 18 19 20 21 22 23 24 25 26 27 28 29 30 31 32 33 34 35 36 37 38 39 40 41 42 43 44 45 46 47 48 49 50
611
ASUS43 KJKL 241710
RWRJKL

EAST KENTUCKY HOURLY WEATHER ROUNDUP
NATIONAL WEATHER SERVICE JACKSON KY
100 PM EDT SUN SEP 24 2017

NOTE: "FAIR" INDICATES FEW OR NO CLOUDS BELOW 12,000 FEET WITH
NO SIGNIFICANT WEATHER AND/OR OBSTRUCTIONS TO VISIBILITY.

* THESE REPORTS ARE NOT UNDER NWS QUALITY CONTROL AND MAY NOT
  REPORT WEATHER SUCH AS PRECIPITATION AND FOG.

KYZ079-080-083-085-087-088-110-112-115-119-120-241800
...EASTERN KENTUCKY...

CITY           SKY/WX    TMP DP  RH WIND       PRES   REMARKS
JACKSON        SUNNY     81  64  56 CALM      30.13F
LONDON         SUNNY     82  63  52 CALM      30.11F
SOMERSET*      SUNNY     81  64  57 W5        30.11F
MONTICELLO*    SUNNY     84  67  56 VRB7      30.11F
WILLIAMSBURG*  SUNNY     82  66  57 S5        30.11F
MIDDLESBORO*   SUNNY     82  63  51 CALM      30.13F
HARLAN APT*    SUNNY     81  61  50 CALM      30.14F
PIKE CO APT*     N/A     79  59  50 SE3       30.14F
BIG SANDY APT* SUNNY     83  62  48 E5        30.13F
MOREHEAD APT*  SUNNY     82  61  47 VRB3      30.14F
$$

KYZ035-036-041-042-044-050-067-078-099-241800
...CENTRAL KENTUCKY...

CITY           SKY/WX    TMP DP  RH WIND       PRES   REMARKS
MT STERLING*   SUNNY     82  61  47 E7        30.13F
FLEMING/MASON* SUNNY     83  61  46 E6        30.13F
DANVILLE*      SUNNY     82  64  54 E7        30.11F
LEXINGTON      SUNNY     85  62  46 E7        30.10F
FRANKFORT      SUNNY     86  62  44 CALM      30.09F
LOUISVILLE     MOSUNNY   86  67  52 VRB6      30.07F
LEBANON*         N/A     84  66  54 NW5       30.08F
GLASGOW*       PTSUNNY   85  68  55 CALM      30.08S
BOWLING GREEN  SUNNY     85  69  58 CALM      30.06F
$$

KYZ091>093-OHZ055-061-077-WVZ005-015-034-035-042-241800
...SOUTHERN OHIO/WEST VIRGINIA...

CITY           SKY/WX    TMP DP  RH WIND       PRES   REMARKS
COVINGTON      SUNNY     85  64  49 SE8       30.11F
COLUMBUS       MOSUNNY   87  58  37 VRB7      30.13F
DAYTON         SUNNY     84  60  44 SE7       30.14F
WILMINGTON     SUNNY     84  58  40 SE8       30.13F
HUNTINGTON     SUNNY     83  61  47 E5        30.12F
CHARLESTON     MOSUNNY   84  54  35 CALM      30.13F
PINEVILLE*     SUNNY     84  53  34 MISG      30.20F
BECKLEY        SUNNY     79  52  38 E9        30.19F
BLUEFIELD      SUNNY     77  49  37 VRB7      30.21F
LOGAN CO APT*    N/A     81  59  47 CALM      30.15F
$$

VAZ002-007-008-TNZ017-027-036-066-071-241800
...SOUTHWEST VIRGINIA/EAST TENNESSEE...

CITY           SKY/WX    TMP DP  RH WIND       PRES   REMARKS
WISE*          SUNNY     81  43  26 CALM      30.21S
JONESVILLE*      N/A     82  59  44 NW5       30.15F
ABINGDON*      SUNNY     81  55  40 CALM      30.16F
BRISTOL        MOSUNNY   83  57  41 CALM      30.13F
MORRISTOWN*    SUNNY     84  59  42 S5        30.11F
SEVIERVILLE*   MOSUNNY   84  63  48 VRB3      30.09F
KNOXVILLE      PTSUNNY   82  64  54 NE6       30.10S
LAFOLLETTE*    MOSUNNY   82  66  57 CALM      30.15F
OAK RIDGE      SUNNY     83  64  52 CALM      30.12F
CROSSVILLE     CLOUDY    79  62  56 CALM      30.15F
NASHVILLE      MOSUNNY   87  63  44 SW6       30.06F
$$

...KEY TO REMARKS...
VSB - VISIBILITY IN MILES
WCI - WIND CHILL INDEX
HX  - HEAT INDEX

$$




USA.gov is the U.S. government's official web portal to all federal, state and local government web resources and services.